Wind_Speed
79 79 85 78 68 66 68 65 61 61 58 56 55 54 54 55 58 58 54 54 56 56 54 54 53 54 54 54 51 57 54 55 57 58 60 62 60 56 47 46 49 48 43 45 44 41 37
84 83 78 73 73 74 70 67 69 69 63 62 61 59 61 65 64 68 71 66 62 63 64 61 58 62 59 58 59 60 61 59 58 52 48 44 43 43 43 43 43 42 41 40 38 36 38
82 80 79 77 76 77 74 72 70 70 67 66 66 68 66 72 71 76 69 74 71 70 68 68 68 71 66 51 46 41 42 40 41 43 42 43 43 43 43 44 42 40 41 39 38 34 38
80 80 78 80 80 81 80 75 73 75 76 76 75 75 80 76 73 71 57 57 75 71 62 61 67 54 59 50 43 42 42 40 42 44 43 43 44 44 44 44 41 41 38 37 33 35 37
80 80 79 78 76 79 80 80 82 81 76 76 77 76 64 60 58 56 52 45 46 42 40 39 37 40 40 42 42 41 42 42 41 40 40 41 43 42 43 40 39 38 39 39 38 40 40
72 76 74 76 71 67 73 75 79 79 76 69 59 55 55 53 53 50 47 46 45 41 41 39 38 39 41 41 41 41 39 39 41 41 40 37 40 44 43 39 42 41 42 40 40 41 42
77 77 77 76 74 75 70 69 67 66 65 63 61 60 56 54 51 49 48 50 47 46 42 42 41 39 43 44 43 43 40 41 41 42 41 40 41 42 42 44 44 44 43 42 42 44 45
81 72 73 76 71 71 71 67 65 64 64 64 61 61 60 58 55 56 54 54 50 49 48 46 46 45 47 48 46 43 43 44 43 42 44 44 43 42 45 46 46 45 47 45 45 48 50
85 79 81 75 75 72 68 69 67 66 66 67 67 62 63 59 61 59 58 56 55 53 54 50 50 50 49 52 50 45 51 49 46 46 44 47 49 50 47 48 48 47 50 47 51 54 56
99 96 85 79 76 73 75 77 76 72 70 72 72 70 67 66 63 62 62 61 57 59 59 57 55 55 55 55 54 54 54 55 57 52 50 53 53 48 48 52 55 52 51 53 56 58 61
96 95 84 82 77 78 77 77 80 74 73 79 77 75 74 68 65 62 61 60 61 59 59 61 63 62 61 58 60 61 62 62 58 56 56 55 54 53 54 53 55 55 56 57 57 59 60
96 97 93 83 80 72 65 67 74 75 76 77 73 71 73 70 67 66 67 69 72 64 63 63 64 67 67 64 64 66 65 64 62 62 61 60 60 60 59 57 58 58 61 63 64 66 72
78 88 96 90 86 87 72 75 81 77 73 75 77 78 75 72 70 72 75 75 69 69 68 69 68 69 71 70 71 70 69 67 68 68 65 63 61 59 60 63 59 59 61 67 72 73 78
88 73 84 95 89 84 75 75 74 77 76 75 78 82 83 79 79 77 78 73 75 75 74 70 70 71 73 73 72 73 72 70 70 67 68 66 64 61 61 59 62 64 63 67 70 73 76
60 65 54 67 74 83 80 77 74 87 85 86 87 85 79 77 75 76 77 79 76 73 74 73 73 75 77 78 78 76 74 72 70 66 61 65 68 62 61 63 63 64 69 65 67 70 72
58 58 57 56 65 75 80 84 86 88 88 84 79 78 76 75 74 74 75 75 76 76 76 76 71 71 74 73 69 69 68 69 66 64 60 61 65 68 67 66 64 66 68 68 67 61 63
63 65 71 69 72 75 76 72 75 74 70 71 73 72 72 70 66 66 72 75 71 70 68 62 56 60 59 56 59 60 60 60 57 59 60 62 63 66 68 72 74 71 62 63 63 60 58
51 61 53 60 67 70 62 58 60 59 55 62 57 63 55 62 58 60 60 60 63 60 57 57 55 53 52 52 53 57 58 59 61 58 58 59 62 64 69 65 66 65 63 56 52 63 64
43 50 53 54 60 53 54 57 60 48 48 50 48 49 46 50 50 51 50 46 48 47 49 55 53 51 50 52 54 53 54 55 54 54 56 56 60 62 63 60 57 58 58 59 61 55 41
40 40 47 52 54 56 57 53 57 50 48 47 51 48 46 47 46 46 47 46 44 44 47 48 49 50 50 51 52 55 54 53 53 54 50 50 53 54 55 48 46 50 59 58 62 56 53
37 36 36 41 45 47 46 47 47 52 55 56 55 54 50 48 47 46 44 43 43 45 45 46 47 48 48 50 49 50 50 53 55 50 47 50 48 44 42 47 41 44 42 54 49 44 49
39 43 42 39 45 46 48 47 48 51 53 54 55 52 50 48 47 45 40 42 41 41 40 41 43 42 46 46 46 48 50 54 53 44 41 47 47 47 46 41 50 55 47 39 45 47 50
47 49 46 47 44 43 46 49 50 51 52 51 49 48 48 48 46 46 43 39 39 42 43 42 41 43 44 44 49 51 47 46 42 36 33 36 43 46 46 44 52 56 45 49 49 50 53
50 51 51 46 49 48 48 50 51 51 49 48 46 45 46 46 46 43 43 43 43 42 43 43 43 42 43 46 44 36 33 32 29 36 35 36 36 42 46 47 54 50 50 50 51 54 57
51 55 59 58 53 52 51 48 48 46 46 45 46 45 42 41 40 41 43 45 45 45 42 40 41 44 40 35 31 28 30 33 31 33 33 34 38 42 47 49 54 49 51 56 58 58 54
45 54 59 60 61 62 61 54 52 52 52 50 48 45 42 41 42 43 46 45 44 45 42 36 38 37 34 31 30 27 33 37 37 37 40 44 48 51 52 53 57 56 56 48 46 42 38
29 33 45 57 65 63 64 66 63 60 60 60 59 55 51 48 46 45 46 44 46 49 39 33 35 34 32 31 33 31 30 39 40 41 40 41 45 48 46 43 39 39 41 31 27 29 34
26 25 24 29 39 49 56 59 59 57 59 58 59 60 59 54 46 42 39 39 42 41 36 34 36 35 33 35 33 32 34 34 39 40 39 39 38 34 35 36 37 33 27 21 21 24 29
23 26 27 24 21 25 29 36 44 52 54 54 48 47 43 40 36 35 35 36 38 39 35 37 35 31 33 32 29 31 33 35 33 35 29 28 29 34 36 36 29 28 26 26 20 17 20
Wind_Direction
244 246 247 243 245 246 246 247 248 249 248 249 249 252 255 259 260 261 262 262 262 262 263 264 267 268 268 268 272 273 274 275 276 278 282 281 278 276 279 279 279 284 284 280 280 283 285
247 249 249 240 244 246 246 247 247 249 247 250 251 257 261 262 266 267 266 262 261 262 262 265 264 264 269 273 272 272 274 274 274 276 275 275 276 276 280 280 282 287 287 285 283 284 284
246 246 248 247 240 242 245 245 246 247 249 253 253 256 259 264 264 265 265 263 257 260 266 266 263 263 264 275 272 271 272 276 275 274 276 278 279 280 282 281 280 283 284 285 290 286 281
243 243 244 246 245 243 242 244 248 251 249 251 251 254 259 261 263 264 266 263 255 261 265 262 265 266 267 266 271 273 273 271 273 275 277 279 281 282 281 281 285 285 286 286 281 278 280
242 241 242 244 246 244 244 243 246 249 252 254 254 256 259 259 259 258 260 261 257 258 259 256 258 260 258 265 267 267 270 270 270 272 276 278 279 280 280 283 285 289 283 278 278 283 283
240 240 240 241 239 243 246 247 248 250 250 253 250 249 251 254 250 252 254 250 254 255 257 258 257 260 266 263 263 265 264 269 273 273 270 273 276 277 281 285 281 277 279 281 282 283 283
229 236 238 239 240 241 242 246 246 245 245 244 246 249 248 248 248 249 249 248 253 254 255 257 261 262 266 266 264 266 267 264 266 270 272 269 273 281 281 278 276 277 281 284 284 282 279
231 232 232 235 237 239 242 239 242 245 243 244 243 247 250 252 251 250 250 251 254 256 257 257 259 265 267 265 267 263 262 266 267 270 271 275 277 272 271 273 273 276 280 285 282 276 271
229 229 231 232 234 236 237 241 243 241 245 242 242 248 249 254 251 250 252 255 255 257 263 261 260 266 267 267 268 261 267 271 272 272 271 270 276 278 274 274 271 274 275 271 269 267 270
233 238 233 236 235 235 236 240 238 239 244 244 247 252 250 252 251 252 251 253 253 261 262 264 261 261 264 265 262 268 267 270 276 278 273 277 281 280 275 271 269 271 268 269 269 269 270
231 235 232 237 234 236 232 240 242 241 243 246 248 248 248 248 251 251 248 249 255 259 261 262 262 263 263 266 266 266 269 273 272 274 277 281 277 275 270 267 268 272 267 268 268 268 267
230 234 234 229 232 230 234 236 240 234 239 237 238 242 246 249 249 247 250 255 253 253 256 256 262 265 266 267 266 264 267 271 272 274 274 273 273 274 273 269 266 267 267 268 269 269 269
237 234 232 235 233 235 239 236 238 236 238 240 243 246 247 248 247 249 251 249 249 250 254 258 262 262 264 265 266 265 267 269 269 270 270 271 273 272 271 271 271 273 274 272 267 265 271
234 239 236 233 235 238 235 235 233 238 239 242 242 241 241 242 242 242 245 246 248 251 252 256 260 261 261 262 263 265 267 268 268 268 269 269 271 269 270 270 271 271 273 275 280 278 275
231 235 233 237 240 237 238 235 243 243 243 235 235 239 238 240 242 243 244 247 251 255 254 254 256 258 259 260 260 261 263 265 267 267 267 267 267 268 272 271 275 274 272 275 277 280 280
197 220 220 216 224 221 224 227 229 228 229 231 230 234 238 241 243 245 248 250 252 254 254 253 252 253 255 257 257 258 260 263 264 267 269 273 273 272 273 274 273 276 280 279 277 281 282
218 210 214 209 216 207 209 212 218 223 229 233 236 240 239 239 240 240 246 250 251 252 251 248 248 251 253 254 255 258 262 265 271 274 276 278 279 278 280 280 281 280 275 274 274 270 269
219 217 216 210 212 220 227 222 223 223 224 229 230 230 232 234 231 233 239 243 247 246 243 246 251 254 256 257 257 260 266 272 275 278 278 277 278 280 284 281 274 272 268 270 273 262 261
197 208 216 221 213 216 219 227 223 232 234 234 236 235 234 237 241 242 242 246 248 249 251 253 258 262 265 265 269 272 275 274 275 276 280 281 279 280 280 278 270 261 261 265 258 263 278
196 205 211 212 216 219 222 219 228 226 225 228 230 232 234 239 239 241 246 250 251 253 255 260 261 262 266 272 274 277 280 281 284 287 282 277 275 271 274 274 272 268 261 259 267 272 282
201 201 206 213 212 214 217 221 222 223 224 226 227 233 238 244 247 250 250 248 245 247 251 254 260 268 268 271 275 281 285 286 287 284 274 271 268 268 271 269 273 278 277 261 288 294 296
208 199 203 207 212 212 212 214 217 221 224 226 230 232 236 239 242 243 242 246 249 252 256 258 260 261 269 277 284 285 286 285 279 269 262 268 271 268 270 276 277 278 276 282 286 291 290
207 203 203 206 209 212 214 215 217 223 225 228 229 232 234 236 239 243 247 248 246 245 251 258 261 266 276 283 283 287 282 272 267 256 261 273 276 274 275 277 276 276 287 279 282 290 302
219 212 211 212 214 214 217 219 221 225 230 232 234 237 237 238 240 244 244 240 244 246 251 259 269 276 279 282 280 273 266 255 247 254 260 265 272 274 275 274 275 281 285 285 285 281 283
229 228 223 216 219 218 220 221 222 227 231 232 234 232 233 235 236 235 238 243 244 252 259 269 276 279 280 267 260 263 250 237 248 240 257 275 276 279 281 281 283 281 282 284 282 283 290
229 227 230 229 230 228 219 222 224 227 229 229 223 221 223 228 231 236 240 244 253 258 261 267 269 265 250 254 258 265 250 249 255 264 273 277 277 278 285 289 290 297 293 289 284 276 282
233 233 233 231 230 229 230 231 228 221 225 224 225 231 237 244 246 248 250 255 256 257 254 249 249 247 249 252 256 259 257 253 263 268 274 275 278 283 289 290 294 299 295 279 270 271 282
242 235 232 234 234 235 235 232 231 232 231 228 231 236 241 246 248 251 254 249 240 235 226 235 242 247 253 255 258 262 261 260 261 265 275 279 281 285 282 286 298 299 285 260 269 269 279
240 235 230 229 223 221 222 225 228 229 229 230 229 229 231 232 237 239 239 239 233 231 226 232 237 244 249 251 257 256 258 262 271 274 278 277 279 278 279 284 290 288 265 257 245 254 261
Height
5702 5705 5711 5717 5724 5729 5734 5739 5743 5748 5752 5756 5761 5764 5767 5770 5773 5776 5778 5780 5782 5785 5786 5788 5790 5792 5795 5797 5799 5792 5796 5797 5798 5798 5798 5796 5795 5794 5793 5793 5795 5793 5794 5794 5794 5794 5795
5683 5688 5694 5702 5708 5716 5721 5726 5731 5736 5740 5745 5749 5753 5756 5759 5761 5764 5766 5768 5770 5773 5774 5777 5780 5782 5785 5787 5785 5783 5784 5784 5786 5787 5786 5785 5786 5785 5784 5786 5785 5786 5787 5787 5787 5788 5786
5667 5672 5679 5686 5693 5700 5706 5712 5717 5722 5726 5731 5735 5740 5743 5747 5748 5752 5752 5752 5757 5759 5762 5765 5770 5771 5774 5777 5773 5773 5773 5775 5774 5775 5775 5776 5777 5777 5778 5777 5776 5779 5779 5780 5780 5780 5777
5649 5656 5663 5670 5677 5684 5690 5696 5703 5708 5713 5718 5723 5727 5731 5734 5736 5738 5737 5738 5742 5749 5750 5750 5758 5759 5763 5763 5764 5764 5766 5764 5764 5765 5766 5767 5767 5769 5767 5767 5769 5769 5771 5770 5773 5771 5769
5632 5640 5647 5655 5662 5668 5675 5682 5687 5693 5699 5705 5710 5715 5718 5721 5723 5725 5727 5728 5732 5736 5739 5742 5745 5749 5755 5754 5755 5755 5755 5755 5756 5756 5757 5758 5760 5759 5758 5759 5761 5761 5759 5760 5762 5762 5761
5615 5623 5631 5639 5647 5654 5660 5666 5673 5679 5685 5692 5696 5700 5705 5708 5711 5714 5716 5720 5724 5726 5731 5732 5736 5742 5742 5744 5746 5747 5745 5746 5748 5749 5749 5751 5751 5750 5752 5752 5751 5748 5748 5751 5750 5751 5749
5594 5603 5614 5622 5631 5639 5645 5652 5657 5663 5670 5677 5682 5688 5692 5695 5699 5702 5707 5711 5716 5717 5719 5724 5726 5728 5731 5733 5734 5736 5736 5739 5740 5742 5743 5742 5742 5744 5746 5742 5742 5741 5739 5739 5738 5738 5737
5577 5586 5596 5607 5615 5624 5631 5637 5644 5650 5656 5663 5670 5674 5679 5683 5687 5691 5695 5700 5704 5706 5708 5712 5714 5717 5719 5722 5724 5726 5729 5729 5731 5733 5734 5738 5736 5734 5733 5732 5731 5731 5730 5731 5729 5724 5722
5556 5568 5581 5590 5600 5609 5617 5623 5630 5636 5642 5648 5655 5660 5664 5670 5674 5679 5684 5688 5691 5693 5695 5701 5702 5706 5707 5708 5710 5716 5712 5716 5720 5722 5724 5726 5725 5722 5724 5721 5719 5722 5717 5719 5713 5708 5709
5536 5550 5564 5576 5584 5594 5603 5608 5616 5621 5626 5633 5637 5644 5650 5656 5663 5666 5672 5677 5678 5681 5683 5687 5690 5692 5693 5696 5699 5699 5701 5704 5704 5708 5710 5711 5714 5715 5712 5707 5703 5708 5706 5702 5699 5696 5698
5519 5534 5546 5559 5568 5578 5585 5591 5599 5606 5610 5616 5622 5628 5634 5642 5649 5653 5660 5662 5666 5671 5669 5673 5674 5676 5681 5686 5686 5688 5689 5688 5691 5694 5696 5700 5700 5698 5696 5695 5691 5695 5690 5687 5685 5683 5677
5504 5513 5527 5542 5550 5559 5565 5575 5583 5585 5591 5598 5605 5612 5618 5628 5634 5639 5644 5649 5653 5655 5652 5656 5661 5663 5666 5670 5673 5674 5676 5675 5675 5679 5683 5685 5685 5682 5683 5682 5678 5680 5678 5671 5669 5669 5657
5485 5493 5508 5520 5530 5540 5548 5558 5566 5568 5574 5582 5590 5596 5604 5610 5617 5623 5628 5633 5635 5636 5639 5643 5650 5652 5653 5655 5656 5658 5663 5662 5663 5664 5668 5671 5674 5674 5669 5665 5665 5663 5662 5653 5647 5646 5641
5465 5479 5488 5501 5514 5522 5531 5539 5546 5550 5560 5566 5572 5578 5585 5593 5597 5602 5610 5614 5615 5624 5624 5630 5635 5636 5639 5642 5644 5643 5645 5645 5647 5648 5651 5653 5665 5660 5654 5655 5654 5649 5645 5641 5625 5630 5628
5451 5468 5476 5484 5493 5505 5515 5523 5530 5537 5543 5546 5551 5558 5566 5574 5582 5587 5592 5594 5602 5609 5613 5617 5618 5618 5623 5626 5629 5632 5630 5631 5633 5634 5635 5632 5642 5647 5640 5640 5637 5642 5634 5629 5613 5612 5603
5435 5454 5464 5473 5483 5489 5497 5504 5513 5519 5523 5528 5535 5543 5550 5556 5565 5570 5573 5581 5586 5593 5598 5599 5599 5604 5607 5611 5612 5618 5616 5617 5618 5618 5617 5614 5616 5629 5629 5621 5621 5617 5621 5613 5608 5596 5588
5429 5438 5448 5457 5468 5473 5481 5487 5495 5502 5508 5513 5522 5527 5533 5540 5549 5551 5556 5566 5572 5577 5581 5584 5585 5589 5593 5596 5598 5602 5602 5603 5604 5602 5602 5598 5596 5612 5611 5605 5603 5605 5598 5595 5589 5590 5581
5414 5419 5430 5441 5451 5460 5469 5475 5480 5488 5493 5497 5507 5515 5520 5527 5534 5539 5547 5553 5558 5562 5567 5571 5574 5576 5581 5581 5586 5588 5591 5587 5590 5587 5583 5585 5579 5581 5589 5593 5582 5582 5581 5581 5577 5575 5567
5399 5404 5417 5428 5439 5447 5455 5463 5470 5476 5482 5490 5496 5505 5507 5514 5521 5533 5538 5542 5545 5549 5551 5556 5560 5562 5566 5567 5570 5573 5575 5574 5572 5573 5568 5569 5566 5561 5564 5568 5566 5565 5571 5564 5561 5558 5552
5390 5399 5408 5416 5425 5435 5444 5450 5459 5466 5470 5478 5486 5489 5492 5501 5512 5520 5524 5529 5535 5537 5539 5542 5546 5549 5553 5555 5556 5558 5559 5557 5558 5558 5553 5550 5551 5551 5548 5549 5546 5550 5555 5553 5546 5542 5536
5384 5391 5400 5406 5414 5424 5432 5440 5447 5453 5460 5469 5473 5477 5486 5494 5501 5507 5510 5519 5525 5525 5526 5529 5534 5538 5538 5540 5540 5543 5545 5543 5544 5542 5539 5535 5534 5537 5538 5539 5539 5536 5544 5539 5534 5530 5522
5380 5385 5392 5399 5406 5414 5423 5429 5436 5441 5448 5456 5462 5470 5477 5484 5490 5495 5500 5509 5513 5513 5516 5520 5522 5524 5525 5530 5530 5530 5528 5529 5529 5529 5526 5526 5525 5525 5526 5532 5526 5523 5532 5528 5524 5522 5517
5375 5380 5385 5392 5399 5407 5414 5422 5427 5430 5437 5445 5453 5461 5466 5471 5477 5484 5495 5500 5500 5502 5504 5507 5511 5511 5514 5517 5516 5517 5514 5513 5515 5517 5515 5516 5516 5513 5517 5518 5513 5512 5523 5515 5513 5513 5505
5368 5373 5378 5384 5391 5397 5405 5412 5419 5422 5428 5436 5445 5449 5456 5462 5468 5479 5482 5483 5485 5492 5494 5496 5500 5500 5501 5501 5502 5502 5503 5504 5504 5506 5509 5505 5507 5503 5507 5506 5502 5509 5509 5503 5500 5503 5497
5356 5361 5368 5373 5381 5388 5394 5401 5408 5414 5419 5427 5433 5439 5446 5452 5459 5465 5471 5475 5475 5482 5487 5486 5487 5489 5489 5494 5494 5492 5496 5498 5499 5498 5499 5498 5497 5496 5494 5495 5492 5499 5497 5493 5489 5490 5485
5342 5348 5355 5361 5367 5374 5384 5391 5399 5406 5410 5419 5423 5429 5437 5444 5451 5455 5459 5465 5469 5473 5475 5476 5477 5479 5480 5484 5486 5488 5488 5492 5494 5490 5490 5490 5489 5490 5486 5481 5479 5485 5481 5476 5472 5474 5475
5329 5333 5338 5344 5352 5361 5369 5377 5386 5395 5400 5408 5413 5420 5426 5433 5438 5444 5450 5456 5457 5460 5465 5466 5469 5472 5473 5478 5480 5481 5482 5485 5485 5483 5483 5481 5480 5479 5475 5469 5472 5471 5466 5465 5466 5470 5467
5320 5324 5328 5332 5337 5344 5352 5361 5371 5379 5386 5395 5402 5409 5416 5422 5428 5433 5438 5443 5447 5448 5450 5460 5460 5463 5467 5472 5473 5474 5472 5477 5476 5475 5474 5472 5470 5470 5466 5464 5464 5462 5458 5458 5460 5460 5461
5312 5317 5322 5326 5331 5337 5342 5348 5356 5364 5373 5382 5392 5398 5405 5412 5421 5424 5430 5436 5440 5443 5445 5449 5454 5456 5459 5463 5464 5467 5466 5468 5468 5467 5465 5465 5463 5460 5459 5459 5457 5455 5453 5453 5452 5455 5455